www.pogodaiklimat.ru

Погода и климат >> Архив погоды >> Украина >> Берегово


ПОГОДА в Берегове

  • Прогноз погоды в Берегове
  • Монитор погоды в Берегове

АРХИВ ПОГОДЫ в Берегове

Время (UTC), дата Ветер
(напр.,м/с)
 
Видим.   Явления Облачность Т
(С)
Тd
(С)
f
(%)
Тe
(С)
Тes
(С)
Комфортность P
(гПа)
Po
(гПа)
Тmin
(С)
Tmax
(С)
R
(мм)
R24
(мм)
S
(см)
15 15.09 З 2 20 км 5/0
[Ci fib]
+23.3 +6.1 33 +24 +25 комфорт 1023.0 1009.6
18 15.09 штиль 0 10 км 6/4 600 м
[Sc Ci fib]
+14.4 +9.8 74 +14 +14 1022.1 1008.3 +23.5
21 15.09 штиль 0 10 км 4/0
[Ci fib]
+9.4 +6.8 84 +9 +9 1021.7 1007.7
00 16.09 Ю 1 10 км 8/0
[Ci fib]
+14.4 +6.5 59 +15 +15 1020.8 1007.1
03 16.09 Ю 1 10 км 9/4 600 м
[Sc Ci fib]
+12.3 +6.7 69 +12 +12 1020.0 1006.2
06 16.09 В 1 20 км 6/0
[Ci fib]
+14.5 +7.1 61 +15 +17 1019.8 1006.1 +9.1
09 16.09 Ю 1 20 км 6/3 600 м
[Cu hum Ci fib]
+21.6 +9.1 45 +23 +29 комфорт 1018.9 1005.5
12 16.09 Ю 2 20 км 8/4 600 м
[Cu hum Ci fib]
+25.6 +11.4 41 +27 +31 жарко 1016.2 1003.0
15 16.09 З 1 20 км 9/4 600 м
[Cb cap Ci fib]
+26.8 +13.5 44 +29 +30 жарко 1013.8 1000.7
18 16.09 штиль 0 10 км 9/8 600 м
[Cb cap Ci fib]
+20.8 +15.1 70 +24 +24 комфорт 1013.1 999.8 +27.1
21 16.09 штиль 0 10 км 9/9 600 м
[Cb cap]
+18.0 +14.1 78 +18 +18 1012.9 999.4
00 17.09 З 1 10 км 9/9 600 м
[Cb cap]
+17.8 +14.3 80 +19 +19 1013.3 999.8
03 17.09 штиль 0 10 км слаб. ливневой дождь 9/9 600 м
[Cb cap]
+15.7 +13.7 88 +15 +15 1013.3 999.7
06 17.09 штиль 0 10 км {ливн. осадки} 9/9 600 м
[Cb cap]
+15.2 +13.4 89 +15 +15 1013.5 999.9 +14.7 0.5
09 17.09 С 1 20 км 9/8 600 м
[Cb cap Ci fib]
+18.0 +13.2 74 +19 +21 1013.1 999.6
12 17.09 З 1 20 км 9/8 600 м
[Cb cap Ci fib]
+20.0 +12.5 62 +23 +25 комфорт 1012.2 998.8
15 17.09 штиль 0 20 км 8/4 600 м
[Cu hum Ci fib]
+22.1 +12.9 56 +25 +26 комфорт 1010.0 996.8
18 17.09 штиль 0 10 км 9/8 600 м
[Cb cap Ci fib]
+17.4 +11.9 70 +17 +17 1009.6 996.2 +22.6
21 17.09 штиль 0 10 км 9/9 600 м
[Sc]
+12.5 +8.2 75 +12 +12 1010.6 996.9
00 18.09 штиль 0 10 км 4/0
[Ci fib]
+11.6 +8.5 81 +11 +11 1011.4 997.7
03 18.09 СЗ 1 10 км 9/9 600 м
[Cb cap]
+12.4 +9.3 81 +12 +12 1013.5 999.8
06 18.09 З 1 20 км 8/3 600 м
[Sc Ci fib]
+12.2 +7.3 72 +12 +13 1016.1 1002.3 +11.0
09 18.09 СЗ 3 20 км 8/6 600 м
[Cu hum Ci fib]
+15.8 +2.9 42 +15 +18 1018.9 1005.3
12 18.09 СЗ 2 20 км 8/8 600 м
[Cb cap]
+17.7 +2.4 36 +18 +20 1019.5 1005.9
15 18.09 СЗ 1 20 км 6/6 600 м
[Cu hum]
+17.2 +3.1 39 +18 +19 1019.8 1006.2
18 18.09 штиль 0 10 км ясно +10.5 +5.3 70 +10 +10 1021.0 1007.1 +18.2
21 18.09 штиль 0 10 км 9/6 600 м
[Sc Ci fib]
+9.3 +4.3 71 +9 +9 1022.7 1008.7
00 19.09 штиль 0 10 км 9/9 600 м
[Sc]
+8.5 +4.3 75 +8 +8 1022.3 1008.3
03 19.09 штиль 0 10 км 9/9 600 м
[Sc]
+7.9 +3.2 72 +7 +7 1022.5 1008.4
06 19.09 штиль 0 20 км 9 баллов +8.1 +3.9 75 +7.7
09 19.09 СЗ 2 20 км 8/8 600 м
[Cu hum]
+15.1 +7.4 60 +15 +17 1023.8 1010.1
12 19.09 З 3 20 км 8/8 600 м
[Cb cap]
+16.8 +4.8 45 +17 +18 1022.8 1009.1
15 19.09 СЗ 2 20 км 6/6 600 м
[Cb cap]
+16.6 +2.9 40 +17 +17 1022.6 1008.9
18 19.09 штиль 0 10 км ясно +12.0 +8.1 77 +12 +12 1023.5 1009.6 +17.1
21 19.09 СЗ 1 10 км 9 баллов +8.2 +3.8 74
00 20.09 СЗ 1 10 км ясно +6.5 +1.8 72 +6 +6 1025.4 1011.2
03 20.09 штиль 0 10 км ясно +4.2 +2.7 90 +3 +3 1025.8 1011.5
06 20.09 штиль 0 20 км 4/0 600 м
[Ci fib]
+7.1 +3.9 80 +6 +8 1026.3 1012.1 +3.7
09 20.09 СЗ 3 20 км 8/6 600 м
[Cu hum Ci fib]
+13.9 +2.8 47 +13 +15 1026.1 1012.3
12 20.09 СЗ 4 20 км 8/6 600 м
[Cb cap Ci fib]
+15.1 +3.3 45 +14 +16 1025.4 1011.6
15 20.09 СЗ 4 20 км 9/8 600 м
[Cb cap Ci fib]
+15.8 +1.1 37 +15 +15 1024.9 1011.2
18 20.09 штиль 0 10 км 6/4 600 м
[Cb cap Ci fib]
+11.8 +4.5 61 +11 +11 1026.2 1012.3 +16.0
21 20.09 штиль 0 10 км 4/4 600 м
[Sc]
+9.4 +5.0 74 +9 +9 1027.0 1012.9
00 21.09 штиль 0 10 км 9/9 600 м
[Sc]
+8.2 +5.1 81 +7 +7 1027.3 1013.2
03 21.09 штиль 0 10 км 4/4 600 м
[Sc]
+6.5 +3.9 83 +6 +6 1027.5 1013.3
06 21.09 штиль 0 20 км 8/3 600 м
[Sc Ci fib]
+6.0 +3.7 85 +5 +6 1028.4 1014.1 +5.7
09 21.09 З 1 20 км 6/0
[Ci fib]
+14.6 +6.4 58 +15 +23 1028.5 1014.7
12 21.09 З 2 20 км 8/8 600 м
[Cu hum]
+17.5 +4.1 41 +18 +20 1026.9 1013.2
15 21.09 штиль 0 20 км 7 баллов +18.6 +3.2 36
18 21.09 штиль 0 10 км 4/3 600 м
[Sc Ci fib]
+10.2 +6.0 75 +10 +10 1025.4 1011.4 +19.4
21 21.09 штиль 0 10 км ясно +10.4 +4.5 67
00 22.09 штиль 0 10 км ясно +10.6 +3.6 62 +10 +10 1024.6 1010.6
03 22.09 штиль 0 10 км ясно +6.2 +3.8 85 +5 +5 1024.2 1010.0
06 22.09 штиль 0 20 км 4 балла +6.9 +3.9 81 +5.9
09 22.09 Ю 1 20 км 4 балла +18.0 +5.2 43
12 22.09 Ю 1 20 км 4 балла +21.6 +3.7 31

 

Местоположение метеостанции Берегово (Закарпатская область, Украина): широта 48.20 долгота 22.60 высота над уровнем моря 114 м.

В архиве по умолчанию представлена погода в Берегове за последнюю неделю. Архивные данные за месяц целиком и за предыдущие месяцы, начиная с января 2011 года, Вы можете получить, выбрав интересующий диапазон дат из раскрывающегося списка и нажав кнопку "Ввод!".


*Определитесь, кто Вы:
робот инопланетянин человек

Внимание! Время в таблицах - всемирное. Для получения местного времени необходимо прибавить поправку, которая равна 2 ч.

Смотрите также архив погоды в соседних городах и на ближайших метеорологических станциях:

Погода в Захони (Венгрия) (39 км)
Погода в Ужгороде (Закарпатская область, Украина) (54 км)
Погода в Сату-Маре (Румыния) (57 км)
Погода в Ньиредьхазе (Венгрия) (59 км)
Погода в Перечине (Закарпатская область, Украина) (60 км)
Погода в Хусте (Закарпатская область, Украина) (63 км)
Погода в Плае (Черновицкая область, Украина) (68 км)
Погода в Великом Березном (Закарпатская область, Украина) (78 км)
Погода в Нижнем Студеном (Закарпатская область, Украина) (79 км)
Погода в Супуру де Йос (Румыния) (82 км)

Пояснения к столбцам:

Ветер - указаны скорость ветра в м/с - средняя за 10 мин, порывы в срок и между сроками (в фигурных скобках) и направление, откуда дует ветер: С - северный, СВ - северо-восточный, В - восточный, ЮВ - юго-восточный, Ю - южный, ЮЗ - юго-западный, З - западный, СЗ - северо-западный.
Видимость - горизонтальная дальность видимости в метрах или километрах. При видимости от 1 до 10 км при отсутствии осадков обычно наблюдается дымка, при ухудшении видимости до 1 км и менее - туман. В сухую погоду видимость может ухудшаться дымом, пылью или мглою.
Явления - указаны атмосферные явления, наблюдавшиеся в срок или в последний час перед сроком; фигурными скобками обозначены явления, наблюдавшиеся между сроками (за 1-3 часа до срока); квадратными скобками обозначены град или гололедные отложения с указанием их диаметра в мм.
Облачность - указаны через наклонную черту общая и нижняя облачность в баллах и высота нижней границы облаков в метрах; квадратными скобками обозначены формы облаков: Ci - перистые, Cs - перисто-слоистые, Cc - перисто-кучевые, Ac - высококучевые, As - высокослоистые, Sc - слоисто-кучевые, Ns - слоисто-дождевые, Cu - кучевые, Cb - кучево-дождевые. Подробнее классификацию облаков см. в Атласе облаков (PDF).
T - Температура воздуха - температура, измеренная на высоте 2 м над землей.
Td - Температура точки росы - температура, при понижении до которой содержащийся в воздухе водяной пар достигнет насыщения.
f - Относительная влажность воздуха - влажноcть воздуха, измеренная на высоте 2 м над землей.
Te - Эффективная температура - температура, которую ощущает одетый по сезону человек в тени. Характеристика душности погоды. При расчете учитывается влияние влажности воздуха и скорости ветра на теплоощущения человека.
Tes - Эффективная температура на солнце - температура, которую ощущает человек, с поправкой на солнечный нагрев. Характеристика знойности погоды. Зависит от высоты солнца над горизонтом, облачности и скорости ветра. Ночью, в пасмурную погоду, а также при ветре 12 м/с и более поправка равна нулю.
P - Атмосферное давление - приведенное к уровню моря атмосферное давление.
Po - Атмосферное давление - измеренное на уровне метеостанции атмосферное давление.
Tmin - Минимальная температура - минимум температуры воздуха на высоте 2 м над землей.
Tmax - Максимальная температура - максимум температуры воздуха на высоте 2 м над землей.
R - Количество осадков - Количество выпавших осадков за период времени, мм. При наведении курсора мыши на число - период времени, за который выпало указанное количество осадков.
R24 - Количество осадков - Количество выпавших осадков за 24 часа, мм.
S - Снежный покров - Высота снежного покрова, см. При наведении курсора мыши на число - состояние снежного покрова и степень покрытия местности в баллах.